User: anonymous   Login
Location: Caltech
(34.1382°N, 118.1253°W)
Time: 01:42:18
(UTC-08:00)
Language:

Spot 4 Rocket - Orbit

View from above orbital plane
View from above orbital plane
View from above satellite
View from above satellite

Ground track
Ground track

The orbit data is extracted from the following two-line orbital elements,

1 25261U 98017B   14331.98314078  .00000660  00000-0  25647-3 0  7361
2 25261 098.4301 281.2530 0002919 355.3507 051.5492 14.33088468871471
Epoch (UTC): 27 November 2014 23:35:43
Eccentricity: 0.0002919
inclination: 98.4301°
perigee height: 779 km
apogee height: 783 km
right ascension of ascending node: 281.2530°
argument of perigee: 355.3507°
revolutions per day: 14.33088468
mean anomaly at epoch: 51.5492°
orbit number at epoch: 87147

The dashed part of the orbit path shows where the satellite is in the earth's shadow,  

DLR